TimeCDT,TemperatureF,Dew PointF,Humidity,Sea Level PressureIn,VisibilityMPH,Wind Direction,Wind SpeedMPH,Gust SpeedMPH,PrecipitationIn,Events,Conditions,WindDirDegrees,DateUTC
12:54 AM,78.1,72.0,81,29.97,10.0,Variable,3.5,-,N/A,,Overcast,0,2013-05-20 05:54:00
1:14 AM,78.8,71.6,78,29.89,10.0,Variable,5.8,-,N/A,,Overcast,0,2013-05-20 06:14:00
1:44 AM,78.8,71.6,78,29.88,10.0,Variable,3.5,-,N/A,,Overcast,0,2013-05-20 06:44:00
1:54 AM,78.1,72.0,81,29.96,10.0,Variable,5.8,-,N/A,,Overcast,0,2013-05-20 06:54:00
2:01 AM,78.8,71.6,78,29.88,10.0,South,4.6,-,N/A,,Mostly Cloudy,180,2013-05-20 07:01:00
2:09 AM,78.8,71.6,78,29.88,10.0,Variable,5.8,-,N/A,,Overcast,0,2013-05-20 07:09:00
2:54 AM,78.1,71.1,79,29.96,10.0,Variable,4.6,-,N/A,,Overcast,0,2013-05-20 07:54:00
3:54 AM,77.0,71.1,82,29.95,10.0,Variable,4.6,-,N/A,,Overcast,0,2013-05-20 08:54:00
4:23 AM,78.8,71.6,78,29.88,10.0,Variable,5.8,-,N/A,,Overcast,0,2013-05-20 09:23:00
4:54 AM,78.1,71.1,79,29.96,10.0,Variable,5.8,-,N/A,,Overcast,0,2013-05-20 09:54:00
5:46 AM,77.0,71.6,83,29.90,10.0,Calm,Calm,-,N/A,,Overcast,0,2013-05-20 10:46:00
5:54 AM,77.0,71.1,82,29.98,10.0,Variable,4.6,-,N/A,,Overcast,0,2013-05-20 10:54:00
6:15 AM,77.0,71.6,83,29.91,10.0,Variable,3.5,-,N/A,,Overcast,0,2013-05-20 11:15:00
6:22 AM,77.0,71.6,83,29.91,10.0,Variable,3.5,-,N/A,,Overcast,0,2013-05-20 11:22:00
6:29 AM,77.0,71.6,83,29.91,10.0,Variable,3.5,-,N/A,,Overcast,0,2013-05-20 11:29:00
6:47 AM,77.0,71.6,83,29.91,10.0,Variable,4.6,-,N/A,,Overcast,0,2013-05-20 11:47:00
6:54 AM,77.0,72.0,84,29.99,10.0,Calm,Calm,-,N/A,,Overcast,0,2013-05-20 11:54:00
7:02 AM,77.0,71.6,83,29.92,10.0,Variable,3.5,-,N/A,,Overcast,0,2013-05-20 12:02:00
7:54 AM,77.0,72.0,84,30.00,10.0,Variable,4.6,-,N/A,,Overcast,0,2013-05-20 12:54:00
8:04 AM,78.8,71.6,78,29.93,10.0,Variable,5.8,-,N/A,,Overcast,0,2013-05-20 13:04:00
8:47 AM,78.8,71.6,78,29.94,10.0,Variable,6.9,-,N/A,,Overcast,0,2013-05-20 13:47:00
8:54 AM,79.0,72.0,79,30.02,10.0,Variable,5.8,-,N/A,,Overcast,0,2013-05-20 13:54:00
9:54 AM,80.1,72.0,76,30.02,10.0,Variable,4.6,-,0.00,,Mostly Cloudy,0,2013-05-20 14:54:00
10:54 AM,84.0,72.0,67,30.01,10.0,Variable,5.8,-,N/A,,Scattered Clouds,0,2013-05-20 15:54:00
11:54 AM,87.1,72.0,61,30.00,10.0,South,10.4,17.3,N/A,,Scattered Clouds,170,2013-05-20 16:54:00
12:54 PM,87.1,71.1,59,29.99,10.0,Variable,4.6,-,N/A,,Mostly Cloudy,0,2013-05-20 17:54:00
1:54 PM,89.1,71.1,55,29.97,10.0,Variable,4.6,-,N/A,,Scattered Clouds,0,2013-05-20 18:54:00
2:54 PM,88.0,71.1,57,29.96,10.0,South,11.5,21.9,N/A,,Scattered Clouds,180,2013-05-20 19:54:00
3:54 PM,87.1,70.0,57,29.94,10.0,SSE,9.2,18.4,N/A,,Mostly Cloudy,160,2013-05-20 20:54:00
4:54 PM,87.1,71.1,59,29.93,10.0,Variable,4.6,-,N/A,,Mostly Cloudy,0,2013-05-20 21:54:00
5:54 PM,87.1,71.1,59,29.90,10.0,Variable,4.6,19.6,N/A,,Partly Cloudy,0,2013-05-20 22:54:00
6:54 PM,84.0,72.0,67,29.89,10.0,Variable,5.8,-,N/A,,Clear,0,2013-05-20 23:54:00
7:54 PM,82.0,72.0,71,29.90,10.0,Variable,4.6,-,N/A,,Clear,0,2013-05-21 00:54:00
8:54 PM,80.1,72.0,76,29.92,10.0,Variable,6.9,-,N/A,,Scattered Clouds,0,2013-05-21 01:54:00
9:54 PM,79.0,71.1,77,29.94,10.0,South,3.5,-,N/A,,Partly Cloudy,190,2013-05-21 02:54:00
10:28 PM,78.8,71.6,78,29.88,10.0,Variable,4.6,-,N/A,,Mostly Cloudy,0,2013-05-21 03:28:00
10:54 PM,78.1,72.0,81,29.96,10.0,Variable,5.8,-,N/A,,Mostly Cloudy,0,2013-05-21 03:54:00
11:54 PM,78.1,72.0,81,29.97,10.0,Calm,Calm,-,N/A,,Overcast,0,2013-05-21 04:54:00